GLO1000 SBSP-SBRJ

Flight info

Callsign GLO1000
Flight time 0h 38m
Altitude 27000
Route NIBRU UZ171 KEVUN
Aircraft B737/M-SDE2E3FGHIRWXY/LB1

Departure

Time 2026-05-01 13:46
Airport Congonhas–Deputado Freitas Nobre Airport (SBSP)

Arrival

Time 2026-05-01 14:24
Airport Santos Dumont Airport (SBRJ)
Time Latitude Longitude Altitude Speed Heading
2026-05-01 13:15 -23.62689 -46.65845 2599 ft 0 kts 237°
2026-05-01 13:38 -23.62687 -46.65843 2599 ft 3 kts 237°
2026-05-01 13:38 -23.62674 -46.65821 2600 ft 4 kts 238°
2026-05-01 13:38 -23.62663 -46.65799 2600 ft 4 kts 248°
2026-05-01 13:39 -23.62658 -46.65776 2600 ft 4 kts 286°
2026-05-01 13:39 -23.62668 -46.65758 2601 ft 4 kts 313°
2026-05-01 13:39 -23.62685 -46.65741 2601 ft 4 kts 328°
2026-05-01 13:39 -23.62697 -46.65733 2601 ft 0 kts 328°
2026-05-01 13:40 -23.62698 -46.65733 2601 ft 0 kts 328°
2026-05-01 13:42 -23.62697 -46.65734 2601 ft 1 kts 327°
2026-05-01 13:42 -23.62668 -46.65755 2601 ft 9 kts 326°
2026-05-01 13:42 -23.62602 -46.65802 2601 ft 12 kts 325°
2026-05-01 13:42 -23.62535 -46.65851 2601 ft 11 kts 329°
2026-05-01 13:43 -23.62469 -46.65896 2600 ft 11 kts 327°
2026-05-01 13:43 -23.62408 -46.65939 2600 ft 10 kts 322°
2026-05-01 13:43 -23.62350 -46.65979 2599 ft 10 kts 328°
2026-05-01 13:43 -23.62282 -46.66022 2599 ft 13 kts 332°
2026-05-01 13:44 -23.62215 -46.66063 2591 ft 10 kts 330°
2026-05-01 13:44 -23.62169 -46.66095 2603 ft 7 kts 323°
2026-05-01 13:44 -23.62119 -46.66128 2597 ft 10 kts 332°
2026-05-01 13:44 -23.62061 -46.66137 2596 ft 6 kts 22°
2026-05-01 13:45 -23.62045 -46.66082 2595 ft 9 kts 123°
2026-05-01 13:45 -23.62063 -46.66066 2595 ft 0 kts 144°
2026-05-01 13:45 -23.62203 -46.65967 2593 ft 68 kts 148°
2026-05-01 13:46 -23.62867 -46.65505 2607 ft 154 kts 148°
2026-05-01 13:46 -23.63814 -46.64905 3011 ft 190 kts 149°
2026-05-01 13:46 -23.64985 -46.63973 3805 ft 221 kts 131°
2026-05-01 13:46 -23.65810 -46.62468 4596 ft 241 kts 116°
2026-05-01 13:47 -23.66601 -46.60783 5345 ft 262 kts 116°
2026-05-01 13:47 -23.67451 -46.58990 6368 ft 270 kts 116°
2026-05-01 13:47 -23.68329 -46.57145 7410 ft 277 kts 115°
2026-05-01 13:47 -23.69227 -46.55261 8457 ft 283 kts 116°
2026-05-01 13:48 -23.70135 -46.53361 9420 ft 289 kts 116°
2026-05-01 13:48 -23.71012 -46.51524 10313 ft 294 kts 116°
2026-05-01 13:48 -23.71845 -46.49426 10949 ft 313 kts 101°
2026-05-01 13:48 -23.71863 -46.46965 11181 ft 340 kts 82°
2026-05-01 13:49 -23.71509 -46.44368 11380 ft 366 kts 80°
2026-05-01 13:49 -23.71100 -46.41723 11797 ft 381 kts 80°
2026-05-01 13:49 -23.70652 -46.38843 12484 ft 388 kts 80°
2026-05-01 13:49 -23.70206 -46.35911 13237 ft 393 kts 81°
2026-05-01 13:50 -23.69767 -46.32942 13912 ft 399 kts 81°
2026-05-01 13:50 -23.69332 -46.29937 14570 ft 405 kts 81°
2026-05-01 13:50 -23.68895 -46.26881 15204 ft 411 kts 81°
2026-05-01 13:50 -23.68455 -46.23786 15806 ft 416 kts 81°
2026-05-01 13:51 -23.68007 -46.20647 16406 ft 421 kts 81°
2026-05-01 13:51 -23.67558 -46.17517 16963 ft 426 kts 81°
2026-05-01 13:51 -23.67097 -46.14303 17498 ft 430 kts 80°
2026-05-01 13:51 -23.66629 -46.11062 17996 ft 436 kts 80°
2026-05-01 13:52 -23.66156 -46.07769 18495 ft 441 kts 81°
2026-05-01 13:52 -23.65682 -46.04458 19025 ft 444 kts 80°
2026-05-01 13:52 -23.65201 -46.01114 19554 ft 447 kts 80°
2026-05-01 13:52 -23.64716 -45.97748 20039 ft 451 kts 80°
2026-05-01 13:53 -23.64225 -45.94358 20501 ft 454 kts 80°
2026-05-01 13:53 -23.63234 -45.87502 21363 ft 461 kts 80°
2026-05-01 13:53 -23.62730 -45.84032 21777 ft 464 kts 80°
2026-05-01 13:54 -23.62222 -45.80546 22185 ft 467 kts 80°
2026-05-01 13:54 -23.61715 -45.77047 22574 ft 469 kts 81°
2026-05-01 13:54 -23.61202 -45.73514 22943 ft 472 kts 80°
2026-05-01 13:54 -23.60686 -45.69978 23287 ft 475 kts 80°
2026-05-01 13:55 -23.60165 -45.66416 23608 ft 478 kts 80°
2026-05-01 13:55 -23.59640 -45.62822 23914 ft 480 kts 80°
2026-05-01 13:55 -23.59111 -45.59211 24232 ft 482 kts 80°
2026-05-01 13:55 -23.58586 -45.55639 24542 ft 484 kts 80°
2026-05-01 13:56 -23.58052 -45.52005 24826 ft 487 kts 80°
2026-05-01 13:56 -23.57513 -45.48344 25131 ft 489 kts 80°
2026-05-01 13:56 -23.56924 -45.44690 25409 ft 491 kts 78°
2026-05-01 13:56 -23.56196 -45.41044 25699 ft 492 kts 76°
2026-05-01 13:57 -23.55400 -45.37406 25954 ft 494 kts 75°
2026-05-01 13:57 -23.54859 -45.34992 26120 ft 496 kts 75°
2026-05-01 13:57 -23.53778 -45.30154 26680 ft 493 kts 76°
2026-05-01 13:57 -23.52987 -45.26542 27174 ft 490 kts 76°
2026-05-01 13:58 -23.52232 -45.23033 27226 ft 495 kts 76°
2026-05-01 13:58 -23.51453 -45.19374 27245 ft 499 kts 76°
2026-05-01 13:58 -23.50966 -45.17082 27238 ft 501 kts 76°
2026-05-01 13:58 -23.49909 -45.12103 27237 ft 506 kts 76°
2026-05-01 13:59 -23.49384 -45.09634 27233 ft 507 kts 76°
2026-05-01 13:59 -23.48644 -45.06163 27227 ft 510 kts 76°
2026-05-01 13:59 -23.47842 -45.02403 27232 ft 510 kts 76°
2026-05-01 13:59 -23.47036 -44.98634 27215 ft 511 kts 76°
2026-05-01 14:00 -23.45963 -44.93639 27226 ft 511 kts 76°
2026-05-01 14:00 -23.45405 -44.91095 27225 ft 511 kts 76°
2026-05-01 14:00 -23.44525 -44.87130 27218 ft 512 kts 76°
2026-05-01 14:00 -23.43682 -44.83357 27226 ft 512 kts 76°
2026-05-01 14:01 -23.42839 -44.79592 27217 ft 512 kts 76°
2026-05-01 14:01 -23.41997 -44.75825 27215 ft 512 kts 76°
2026-05-01 14:01 -23.41157 -44.72061 27211 ft 511 kts 76°
2026-05-01 14:01 -23.40317 -44.68297 27210 ft 511 kts 76°
2026-05-01 14:02 -23.39520 -44.64725 27211 ft 511 kts 76°
2026-05-01 14:02 -23.38691 -44.61011 27193 ft 497 kts 76°
2026-05-01 14:02 -23.37891 -44.57428 27193 ft 476 kts 76°
2026-05-01 14:02 -23.37123 -44.53999 27188 ft 456 kts 76°
2026-05-01 14:03 -23.36395 -44.50750 27193 ft 438 kts 75°
2026-05-01 14:03 -23.35689 -44.47600 27187 ft 420 kts 75°
2026-05-01 14:03 -23.35008 -44.44575 27183 ft 404 kts 75°
2026-05-01 14:03 -23.34310 -44.41677 27179 ft 388 kts 69°
2026-05-01 14:04 -23.33301 -44.39025 27198 ft 371 kts 63°
2026-05-01 14:04 -23.32204 -44.36537 27179 ft 357 kts 62°
2026-05-01 14:04 -23.31127 -44.34163 27180 ft 343 kts 62°
2026-05-01 14:04 -23.30100 -44.31881 27177 ft 329 kts 62°
2026-05-01 14:05 -23.29123 -44.29677 27183 ft 320 kts 62°
2026-05-01 14:05 -23.28205 -44.27581 27207 ft 324 kts 63°
2026-05-01 14:05 -23.27220 -44.25320 27235 ft 336 kts 63°
2026-05-01 14:05 -23.26216 -44.23001 27207 ft 340 kts 63°
2026-05-01 14:06 -23.25212 -44.20676 27197 ft 339 kts 63°
2026-05-01 14:06 -23.24219 -44.18370 27184 ft 337 kts 63°
2026-05-01 14:06 -23.23227 -44.16065 27184 ft 336 kts 63°
2026-05-01 14:06 -23.22238 -44.13773 27187 ft 334 kts 63°
2026-05-01 14:07 -23.21254 -44.11490 27182 ft 333 kts 63°
2026-05-01 14:07 -23.20301 -44.09282 27187 ft 332 kts 63°
2026-05-01 14:07 -23.19307 -44.07016 27159 ft 333 kts 62°
2026-05-01 14:08 -23.17120 -44.02279 26357 ft 372 kts 62°
2026-05-01 14:08 -23.15962 -43.99779 25940 ft 377 kts 62°
2026-05-01 14:08 -23.14798 -43.97169 25434 ft 382 kts 63°
2026-05-01 14:08 -23.13689 -43.94576 24840 ft 385 kts 64°
2026-05-01 14:09 -23.12574 -43.91937 24454 ft 382 kts 64°
2026-05-01 14:09 -23.11477 -43.89341 24103 ft 377 kts 64°
2026-05-01 14:09 -23.10423 -43.86762 23691 ft 374 kts 68°
2026-05-01 14:09 -23.09412 -43.84148 23248 ft 372 kts 66°
2026-05-01 14:10 -23.08320 -43.81613 22880 ft 369 kts 64°
2026-05-01 14:10 -23.07228 -43.79189 22521 ft 365 kts 64°
2026-05-01 14:10 -23.06123 -43.76719 22128 ft 362 kts 64°
2026-05-01 14:10 -23.05045 -43.74256 21711 ft 360 kts 64°
2026-05-01 14:11 -23.03985 -43.71795 21284 ft 359 kts 64°
2026-05-01 14:11 -23.01882 -43.66940 20486 ft 353 kts 64°
2026-05-01 14:11 -23.00826 -43.64529 19874 ft 357 kts 64°
2026-05-01 14:12 -22.99757 -43.62091 19117 ft 357 kts 64°
2026-05-01 14:12 -22.98690 -43.59663 18372 ft 356 kts 64°
2026-05-01 14:12 -22.97624 -43.57243 17628 ft 355 kts 64°
2026-05-01 14:12 -22.96563 -43.54835 16887 ft 353 kts 64°
2026-05-01 14:13 -22.95508 -43.52438 16136 ft 351 kts 64°
2026-05-01 14:13 -22.94817 -43.50862 15644 ft 349 kts 64°
2026-05-01 14:13 -22.93543 -43.47642 14655 ft 345 kts 68°
2026-05-01 14:13 -22.92655 -43.45233 13890 ft 342 kts 68°
2026-05-01 14:14 -22.91672 -43.42909 13118 ft 338 kts 56°
2026-05-01 14:14 -22.90062 -43.41095 12369 ft 333 kts 33°
2026-05-01 14:14 -22.87996 -43.40118 11632 ft 328 kts 11°
2026-05-01 14:14 -22.85741 -43.40086 10885 ft 324 kts 348°
2026-05-01 14:15 -22.83686 -43.41009 10131 ft 320 kts 324°
2026-05-01 14:15 -22.82162 -43.42724 9391 ft 316 kts 300°
2026-05-01 14:15 -22.81416 -43.44937 8638 ft 313 kts 276°
2026-05-01 14:15 -22.81570 -43.47256 7896 ft 309 kts 252°
2026-05-01 14:16 -22.82540 -43.49304 7168 ft 306 kts 234°
2026-05-01 14:16 -22.83820 -43.51140 6450 ft 303 kts 226°
2026-05-01 14:16 -22.85530 -43.52299 6215 ft 282 kts 193°
2026-05-01 14:16 -22.87391 -43.52260 5946 ft 264 kts 159°
2026-05-01 14:17 -22.88883 -43.51184 5422 ft 259 kts 134°
2026-05-01 14:17 -22.90095 -43.49786 4901 ft 258 kts 127°
2026-05-01 14:17 -22.91045 -43.48120 4399 ft 257 kts 112°
2026-05-01 14:17 -22.91533 -43.46293 4081 ft 255 kts 98°
2026-05-01 14:18 -22.91556 -43.44383 3700 ft 255 kts 78°
2026-05-01 14:18 -22.91046 -43.42564 3273 ft 250 kts 71°
2026-05-01 14:18 -22.90469 -43.40804 2834 ft 245 kts 71°
2026-05-01 14:18 -22.90083 -43.39633 2516 ft 243 kts 71°
2026-05-01 14:19 -22.89327 -43.37385 2083 ft 231 kts 69°
2026-05-01 14:19 -22.88813 -43.35856 2115 ft 203 kts 70°
2026-05-01 14:19 -22.88360 -43.34475 2122 ft 190 kts 70°
2026-05-01 14:19 -22.87931 -43.33164 2159 ft 178 kts 70°
2026-05-01 14:20 -22.87527 -43.31941 2197 ft 170 kts 70°
2026-05-01 14:20 -22.86771 -43.29559 2187 ft 164 kts 78°
2026-05-01 14:20 -22.86699 -43.28362 2168 ft 154 kts 89°
2026-05-01 14:21 -22.86710 -43.27233 2215 ft 145 kts 89°
2026-05-01 14:21 -22.86722 -43.26109 2184 ft 151 kts 89°
2026-05-01 14:21 -22.86732 -43.24982 2187 ft 149 kts 89°
2026-05-01 14:22 -22.86752 -43.22752 2190 ft 144 kts 89°
2026-05-01 14:22 -22.86756 -43.21649 2100 ft 151 kts 89°
2026-05-01 14:22 -22.86761 -43.20520 1880 ft 145 kts 90°
2026-05-01 14:22 -22.86764 -43.19462 1649 ft 135 kts 91°
2026-05-01 14:23 -22.86798 -43.18460 1435 ft 132 kts 98°
2026-05-01 14:23 -22.87087 -43.17528 1202 ft 131 kts 121°
2026-05-01 14:23 -22.87707 -43.16813 921 ft 131 kts 145°
2026-05-01 14:23 -22.88549 -43.16443 538 ft 131 kts 170°
2026-05-01 14:24 -22.89451 -43.16378 207 ft 130 kts 178°
2026-05-01 14:24 -22.90357 -43.16330 58 ft 130 kts 175°
2026-05-01 14:24 -22.91226 -43.16271 19 ft 101 kts 177°
2026-05-01 14:24 -22.91549 -43.16251 19 ft 19 kts 180°
2026-05-01 14:25 -22.91593 -43.16302 20 ft 10 kts 289°
2026-05-01 14:25 -22.91552 -43.16349 19 ft 7 kts 315°
2026-05-01 14:25 -22.91522 -43.16382 20 ft 5 kts 319°
2026-05-01 14:25 -22.91493 -43.16411 20 ft 8 kts 314°
2026-05-01 14:26 -22.91438 -43.16469 23 ft 13 kts 318°
2026-05-01 14:26 -22.91309 -43.16510 22 ft 4 kts 356°
2026-05-01 14:26 -22.91284 -43.16528 21 ft 6 kts 290°
2026-05-01 14:27 -22.91282 -43.16563 21 ft 2 kts 268°
2026-05-01 14:27 -22.91283 -43.16578 21 ft 2 kts 267°
2026-05-01 14:27 -22.91283 -43.16583 21 ft 0 kts 266°